El Poble-sec, Spain

11:23 AM CEST on April 27, 2017 (GMT +0200)
El Poble-sec

Weather History for 08181 - January, 2014

Change the Weather History Date:

Monday, January 20, 2014

  Actual Average Record
Temperature  
Mean Temperature 50 °F -  
Max Temperature 56 °F 55 °F - ()
Min Temperature 44 °F 41 °F - ()
Degree Days  
Heating Degree Days 14    
Moisture  
Dew Point 37 °F    
Average Humidity 61    
Maximum Humidity 93    
Minimum Humidity 39    
Precipitation  
Precipitation 0.00 in 0.05 in - ()
Sea Level Pressure  
Sea Level Pressure 29.72 in    
Wind  
Wind Speed 8 mph ()    
Max Wind Speed 16 mph    
Max Gust Speed 28 mph    
Visibility 10.3 miles    
Events      
T = Trace of Precipitation, MM = Missing Value Source: Averaged Metar Reports

Daily Weather History Graph

Daily Weather History Graph

Search for Another Location

Airport or City:

Trip Planner

Search our weather history database for the weather conditions in past years. The results will help you decide how hot, cold, wet, or windy it might be!

Date:

Astronomy

Jan. 20, 2014 Rise Set
Actual Time 8:12 AM CET 5:53 PM CET
Civil Twilight 7:42 AM CET 6:23 PM CET
Nautical Twilight 7:08 AM CET 6:56 PM CET
Astronomical Twilight 6:35 AM CET 7:29 PM CET
Moon 10:16 PM CET (1/20) 10:02 AM CET (1/20)
Length of Visible Light 10h 40m
Length of Day
9h 40m
Waning Gibbous, 84% of the Moon is Illuminated
Jan 20
Waning Gibbous
Jan 24
Last Quarter
Jan 30
New
Feb 6
First Quarter
Feb 15
Full

Hourly Weather History & Observations

Time (CET) Temp. Windchill Dew Point Humidity Pressure Visibility Wind Dir Wind Speed Gust Speed Precip Events Conditions
12:00 AM 48 °F - 47 °F 93% 29.60 in 7 mi West 4.6 mph - -  
12:00 AM 48.2 °F - 44.6 °F 87% 29.59 in 6.2 mi WNW 4.6 mph - N/A   Scattered Clouds
12:30 AM 48.2 °F - 44.6 °F 87% 29.59 in 6.2 mi Variable 2.3 mph - N/A   Scattered Clouds
1:00 AM 48 °F - 43 °F 78% 29.60 in 19 mi NNW 5.8 mph - -   Partly Cloudy
1:00 AM 46.4 °F 42.4 °F 42.8 °F 87% 29.59 in 6.2 mi NW 8.1 mph - N/A   Scattered Clouds
1:30 AM 46.4 °F 41.1 °F 39.2 °F 76% 29.59 in 6.2 mi NW 11.5 mph - N/A   Scattered Clouds
2:00 AM 47 °F - 43 °F 80% 29.61 in 19 mi WNW 3.5 mph - -  
2:00 AM 46.4 °F 41.9 °F 41.0 °F 81% 29.59 in 6.2 mi NW 9.2 mph - N/A   Scattered Clouds
2:30 AM 46.4 °F 41.9 °F 39.2 °F 76% 29.59 in 6.2 mi NW 9.2 mph - N/A   Scattered Clouds
3:00 AM 47 °F - 41 °F 73% 29.62 in 19 mi NNW 5.8 mph - -  
3:00 AM 46.4 °F 44.3 °F 39.2 °F 76% 29.59 in 6.2 mi WNW 4.6 mph - N/A   Scattered Clouds
3:30 AM 46.4 °F 42.9 °F 39.2 °F 76% 29.62 in 6.2 mi NNW 6.9 mph - N/A   Scattered Clouds
4:00 AM 47 °F - 40 °F 70% 29.62 in 19 mi NNW 5.8 mph - -   Partly Cloudy
4:00 AM 46.4 °F 41.1 °F 37.4 °F 71% 29.62 in 6.2 mi NW 11.5 mph - N/A   Scattered Clouds
4:30 AM 46.4 °F 41.5 °F 37.4 °F 71% 29.62 in 6.2 mi NW 10.4 mph - N/A   Scattered Clouds
5:00 AM 47 °F - 39 °F 65% 29.62 in 19 mi NW 6.9 mph - -  
5:00 AM 46.4 °F 41.9 °F 35.6 °F 66% 29.59 in 6.2 mi WNW 9.2 mph - N/A   Scattered Clouds
5:30 AM 46.4 °F 41.1 °F 35.6 °F 66% 29.62 in 6.2 mi NW 11.5 mph - N/A   Scattered Clouds
6:00 AM 46 °F - 38 °F 65% 29.64 in 19 mi North 5.8 mph - -  
6:00 AM 46.4 °F 40.4 °F 35.6 °F 66% 29.62 in 6.2 mi NW 13.8 mph - N/A   Scattered Clouds
6:30 AM 46.4 °F 40.4 °F 35.6 °F 66% 29.62 in 6.2 mi NW 13.8 mph - N/A   Partly Cloudy
7:00 AM 47 °F - 37 °F 58% 29.65 in 19 mi NNW 12.7 mph - -   Scattered Clouds
7:00 AM 46.4 °F 40.4 °F 33.8 °F 62% 29.62 in 6.2 mi NW 13.8 mph - N/A   Partly Cloudy
7:30 AM 46.4 °F 41.1 °F 33.8 °F 62% 29.65 in 6.2 mi NW 11.5 mph - N/A   Partly Cloudy
8:00 AM 46 °F - 38 °F 63% 29.68 in 19 mi NNW 11.5 mph - -  
8:00 AM 46.4 °F 40.1 °F 35.6 °F 66% 29.65 in 6.2 mi NW 15.0 mph 27.6 mph N/A   Partly Cloudy
8:30 AM 46.4 °F 41.9 °F 35.6 °F 66% 29.68 in 6.2 mi WNW 9.2 mph - N/A   Partly Cloudy
9:00 AM 46 °F - 37 °F 63% 29.70 in 19 mi NNW 9.2 mph - -  
9:00 AM 46.4 °F 42.4 °F 35.6 °F 66% 29.68 in 6.2 mi NW 8.1 mph 19.6 mph N/A   Partly Cloudy
9:30 AM 46.4 °F 40.7 °F 35.6 °F 66% 29.71 in 6.2 mi NNW 12.7 mph - N/A   Partly Cloudy
10:00 AM 47 °F - 37 °F 60% 29.73 in 19 mi North 13.8 mph - -   Scattered Clouds
10:00 AM 46.4 °F 40.4 °F 35.6 °F 66% 29.71 in 6.2 mi NNW 13.8 mph 25.3 mph N/A   Partly Cloudy
10:30 AM 46.4 °F 39.8 °F 35.6 °F 66% 29.74 in 6.2 mi NNW 16.1 mph - N/A   Partly Cloudy
11:00 AM 48 °F - 38 °F 60% 29.75 in 19 mi NNW 16.1 mph - -  
11:00 AM 48.2 °F - 35.6 °F 62% 29.74 in 6.2 mi NNW 16.1 mph - N/A   Partly Cloudy
11:30 AM 48.2 °F - 35.6 °F 62% 29.74 in 6.2 mi NNW 15.0 mph - N/A   Partly Cloudy
12:00 PM 50 °F - 39 °F 56% 29.77 in 19 mi North 10.4 mph - -  
12:00 PM 50.0 °F - 37.4 °F 62% 29.74 in 6.2 mi NNW 12.7 mph - N/A   Partly Cloudy
12:30 PM 51.8 °F - 35.6 °F 54% 29.74 in 6.2 mi NW 16.1 mph - N/A   Partly Cloudy
1:00 PM 53 °F - 38 °F 46% 29.77 in 19 mi NNW 13.8 mph - -   Scattered Clouds
1:00 PM 51.8 °F - 35.6 °F 54% 29.74 in 6.2 mi NW 13.8 mph - N/A   Partly Cloudy
1:30 PM 53.6 °F - 35.6 °F 51% 29.77 in 6.2 mi WNW 15.0 mph - N/A   Partly Cloudy
2:00 PM 53 °F - 39 °F 47% 29.77 in 19 mi NNW 10.4 mph - -  
2:00 PM 51.8 °F - 35.6 °F 54% 29.74 in 6.2 mi NW 16.1 mph - N/A   Partly Cloudy
2:30 PM 53.6 °F - 37.4 °F 54% 29.74 in 6.2 mi NW 10.4 mph - N/A   Partly Cloudy
3:00 PM 55 °F - 39 °F 43% 29.76 in 19 mi NW 9.2 mph - -  
3:00 PM 53.6 °F - 35.6 °F 51% 29.74 in 6.2 mi NW 8.1 mph - N/A   Partly Cloudy
3:30 PM 55.4 °F - 35.6 °F 47% 29.74 in 6.2 mi NW 9.2 mph - N/A   Partly Cloudy
4:00 PM 56 °F - 38 °F 39% 29.77 in 19 mi WNW 11.5 mph - -   Scattered Clouds
4:00 PM 55.4 °F - 35.6 °F 47% 29.77 in 6.2 mi WNW 15.0 mph - N/A   Partly Cloudy
4:30 PM 55.4 °F - 35.6 °F 47% 29.77 in 6.2 mi WNW 12.7 mph - N/A   Partly Cloudy
5:00 PM 56 °F - 39 °F 41% 29.79 in 19 mi NW 9.2 mph - -  
5:00 PM 55.4 °F - 35.6 °F 47% 29.77 in 6.2 mi WNW 10.4 mph - N/A   Partly Cloudy
5:30 PM 55.4 °F - 35.6 °F 47% 29.77 in 6.2 mi WNW 10.4 mph - N/A   Partly Cloudy
6:00 PM 54 °F - 39 °F 45% 29.80 in 19 mi WNW 4.6 mph - -  
6:00 PM 53.6 °F - 35.6 °F 51% 29.80 in 6.2 mi WNW 6.9 mph - N/A   Partly Cloudy
6:30 PM 51.8 °F - 35.6 °F 54% 29.80 in 6.2 mi WNW 4.6 mph - N/A   Partly Cloudy
7:00 PM 52 °F - 37 °F 45% 29.83 in 19 mi North 2.3 mph - -   Scattered Clouds
7:00 PM 51.8 °F - 35.6 °F 54% 29.80 in 6.2 mi WNW 5.8 mph - N/A   Partly Cloudy
7:30 PM 50.0 °F - 35.6 °F 58% 29.83 in 6.2 mi NNW 3.5 mph - N/A   Partly Cloudy
8:00 PM 50 °F - 36 °F 49% 29.85 in 19 mi NNW 4.6 mph - -  
8:00 PM 50.0 °F - 33.8 °F 54% 29.83 in 6.2 mi NNW 3.5 mph - N/A   Partly Cloudy
8:30 PM 50.0 °F - 33.8 °F 54% 29.86 in 6.2 mi North 2.3 mph - N/A   Partly Cloudy
9:00 PM 49 °F - 37 °F 52% 29.88 in 19 mi NE 8.1 mph - -  
9:00 PM 50.0 °F - 33.8 °F 54% 29.86 in 6.2 mi North 5.8 mph - N/A   Partly Cloudy
9:30 PM 48.2 °F - 35.6 °F 62% 29.86 in 6.2 mi North 6.9 mph - N/A   Partly Cloudy
10:00 PM 48 °F - 37 °F 54% 29.89 in 19 mi North 8.1 mph - -   Scattered Clouds
10:00 PM 48.2 °F - 33.8 °F 58% 29.89 in 6.2 mi NNW 11.5 mph - N/A   Partly Cloudy
10:30 PM 46.4 °F 41.5 °F 33.8 °F 62% 29.89 in 6.2 mi NNW 10.4 mph - N/A   Partly Cloudy
11:00 PM 46 °F - 36 °F 58% 29.90 in 19 mi NNE 4.6 mph - -  
11:00 PM 46.4 °F 41.5 °F 33.8 °F 62% 29.89 in 6.2 mi NNW 10.4 mph - N/A   Partly Cloudy
11:30 PM 44.6 °F 40.2 °F 33.8 °F 66% 29.89 in 6.2 mi NNW 8.1 mph - N/A   Partly Cloudy